User: anonymous   Login
Location: Unspecified
(0.0000°N, 0.0000°E)
Time: 06:38:06
(UTC+00:00)
Language:

ANTELSAT - Orbit

View from above orbital plane
View from above orbital plane
View from above satellite
View from above satellite

Ground track
Ground track

The orbit data is extracted from the following two-line orbital elements,

1 40034U 14033AA  19082.20807150  .00000178  00000-0  33913-4 0  9994
2 40034  97.7741 313.0339 0059351  20.0505 340.3017 14.74060354255784
Epoch (UTC): 23 March 2019 04:59:37
Eccentricity: 0.0059351
inclination: 97.7741°
perigee height: 606 km
apogee height: 690 km
right ascension of ascending node: 313.0339°
argument of perigee: 20.0505°
revolutions per day: 14.74060354
mean anomaly at epoch: 340.3017°
orbit number at epoch: 25578

The dashed part of the orbit path shows where the satellite is in the earth's shadow,  

DLR